Regional Weather Roundup
Issued by NWS

Home | Current Version | Previous Version | Graphics & Text | Print | Product List | Glossary On
Versions: 1 2 3 4 5 6 7 8 9 10 11 12 13 14 15 16 17 18 19 20 21 22 23 24 25 26 27
000
ASUS45 KBOU 220707
RWRCO

WEATHER ROUNDUP FOR COLORADO
NATIONAL WEATHER SERVICE DENVER/BOULDER CO
100 AM MDT THU JUN 22 2017

NOTE: "FAIR" INDICATES FEW OR NO CLOUDS BELOW 12000 FEET WITH NO
SIGNIFICANT WEATHER AND/OR OBSTRUCTIONS TO VISIBILITY.

COZ001>005-013-030-031-220800-
...NORTHWEST COLORADO...

CITY           SKY/WX    TMP DP  RH WIND       PRES   REMARKS
CRAIG          FAIR      53  44  71 CALM      30.07S
HAYDEN         FAIR      59  41  51 E12       30.09S
MEEKER         FAIR      65  42  43 S7        30.11R
RABBIT EARS PA FAIR      55  32  41 W6        30.40F
STEAMBOAT SPGS FAIR      54  42  65 CALM      30.12S
WALDEN         FAIR      50  37  62 SE7       30.21S
$$

COZ006>008-011-220800-
...WEST CENTRAL VALLEYS...

CITY           SKY/WX    TMP DP  RH WIND       PRES   REMARKS
GRAND JUNCTION FAIR      76  36  23 E10       29.91F
MONTROSE       FAIR      72  37  28 SE8       30.02F
EAGLE          FAIR      61  38  42 CALM      30.14S
RIFLE          FAIR      69  38  32 S7        30.02S
DELTA          FAIR      75  38  26 N6        29.98S
NUCLA          FAIR      72  32  23 E10       30.05S
$$

COZ017>023-064>068-220800-
...SOUTHWEST COLORADO...

CITY           SKY/WX    TMP DP  RH WIND       PRES   REMARKS
DURANGO        FAIR      57  35  43 CALM      30.10S
CORTEZ         FAIR      56  43  61 S3        30.02S
PAGOSA SPRINGS FAIR      57  33  39 CALM      30.21S
TELLURIDE      FAIR      60  32  35 SE6       30.34S
WOLF CREEK PAS FAIR      54  27  35 CALM      30.62S
$$

COZ009-010-012-014-032>034-037-058>063-220800-
...CENTRAL COLORADO...

CITY           SKY/WX    TMP DP  RH WIND       PRES   REMARKS
ASPEN          FAIR      56  37  49 S9        30.20F
BUENA VISTA    FAIR      58  32  37 W3        30.25S
COPPER MTN     FAIR      54  27  35 W6        30.55F
BERTHOUD PASS  FAIR      48  36  61 NW25G36   30.56S
COTTONWOOD PAS FAIR      64  25  22 SW10      30.39S
GUNNISON       FAIR      59  38  45 E3        30.23R
KREMMLING      NOT AVBL
LEADVILLE      FAIR      46  29  51 E3        30.37F
MONARCH PASS   FAIR      55  27  33 W3        30.67S
SALIDA         FAIR      64  32  30 W9        30.27S
SUNLIGHT       FAIR      55  27  33 S5        30.47F
WILKERSON PASS FAIR      54  27  35 W5        30.52S
$$

COZ069>075-220800-
...SAN LUIS VALLEY/SANGRE DE CRISTO MOUNTAINS...

CITY           SKY/WX    TMP DP  RH WIND       PRES   REMARKS
ALAMOSA        FAIR      54  43  66 SE3       30.20R
DEL NORTE      FAIR      62  32  32 W10       30.24S
LA VETA PASS   FAIR      59  32  36 MISG      30.53F
SAGUACHE       FAIR      59  32  36 N9        30.22S
$$

COZ035-036-038>040-220800-
...NORTHERN COLORADO FRONT RANGE...

CITY           SKY/WX    TMP DP  RH WIND       PRES   REMARKS
DENVER INTL AP MOCLDY    73  39  29 S13       29.95S
DMNS CITY PARK   N/A     72  40  32 SE5       29.94S
AURORA         PTCLDY    67  41  37 S10       29.98S
FRONT RANGE AP FAIR      73  37  27 SW12      29.96F
ERIE MUNI ARPT FAIR      75  36  24 W6        29.92S
BOULDER MUN AP FAIR      81  34  18 SW9       29.93S
CENTENNIAL     FAIR      66  40  38 S9        30.00S
BROOMFIELD     FAIR      79  34  19 W7        29.97S
FORT COLLINS   FAIR      73  42  32 S7        29.89F
LONGMONT       FAIR      74  41  29 W7        29.92F
$$

COZ041-046-047-076>085-087-088-220800-
...PIKES PEAK/PALMER DIVIDE AND SOUTHERN FOOTHILLS...

CITY           SKY/WX    TMP DP  RH WIND       PRES   REMARKS
COLO. SPRINGS  FAIR      66  41  40 W6        30.05S
A. F. ACADEMY  FAIR      57  42  56 N8        30.08S
SCHRIEVER AFB  NOT AVBL
CHEYENNE MTN   NOT AVBL
ELLICOTT       FAIR     N/A N/A N/A N5        30.03F
FALCON           N/A     65  34  31 W13       30.11F
FORT CARSON    FAIR      67  37  32 NW7       30.02R
LIMON          FAIR      63  40  42 W7        29.96R
MONUMENT HILL  FAIR      63  36  36 SW12      30.13S
CANON CITY     CLEAR     73  43  33 W12       29.99F
WALSENBURG     FAIR      66  43  42 SW10      30.06F
TRINIDAD       FAIR      72  42  34 SW15G24   30.05F
$$

COZ042>045-048>051-090-091-220800-
...NORTHEAST COLORADO...

CITY           SKY/WX    TMP DP  RH WIND       PRES   REMARKS
GREELEY ARPT   FAIR      66  49  54 E6        29.88S
AKRON          FAIR      78  38  23 SE6       29.87F
BURLINGTON     FAIR      72  53  51 S15G23    29.87F
WRAY           FAIR      63  50  63 NW8       29.81S
YUMA           NOT AVBL
STERLING       FAIR      64  50  59 SW5       29.81F
HOLYOKE        NOT AVBL
FORT MORGAN    FAIR      65  42  41 CALM      29.88R
$$

COZ086-089-092>099-220800-
...SOUTHEAST COLORADO...

CITY           SKY/WX    TMP DP  RH WIND       PRES   REMARKS
PUEBLO         FAIR      65  48  54 W5        29.93S
LA JUNTA       FAIR      73  51  46 SW12      29.93R
LAMAR          FAIR      78  53  41 S23G30    29.85S
SPRINGFIELD      N/A     64  60  87 S12       29.98R
$$




USA.gov is the U.S. government's official web portal to all federal, state and local government web resources and services.